• Em Portugal
  • Lista de países
  • Para 7 dias
  • Temperatura da água
  • Mapas de satélite
  • Mapa do tempo
  • Widgets de tempo
  • user-avatar
    Iniciar Sessão

    Previsão horária em Wojtal

    Hoje, 18 Agosto, Sábado

    Tempo Temperatura Precipitação Vento Pressão Humidade
    00:00 +20°C° 0 mm 2 m/s 751 mmHg 79%
    01:00 +20°C° 0 mm 1 m/s 751 mmHg 81%
    02:00 +20°C° 0,1 mm 1 m/s 751 mmHg 82%
    03:00 +20°C° 0,1 mm 1 m/s 751 mmHg 84%
    04:00 +20°C° 0,1 mm 1 m/s 751 mmHg 85%
    05:00 +20°C° 0,2 mm 1 m/s 752 mmHg 84%
    06:00 +20°C° 0,2 mm 2 m/s 752 mmHg 83%
    07:00 +21°C° 0,2 mm 2 m/s 752 mmHg 81%
    08:00 +23°C° 0,5 mm 2 m/s 752 mmHg 76%
    09:00 +24°C° 0,5 mm 2 m/s 753 mmHg 70%
    10:00 +25°C° 0,5 mm 2 m/s 753 mmHg 65%
    11:00 +26°C° 0,7 mm 2 m/s 753 mmHg 61%
    12:00 +26°C° 0,7 mm 2 m/s 753 mmHg 58%
    13:00 +27°C° 0,7 mm 2 m/s 753 mmHg 55%
    14:00 +27°C° 0 mm 2 m/s 753 mmHg 55%
    15:00 +26°C° 0 mm 2 m/s 753 mmHg 55%
    16:00 +26°C° 0 mm 3 m/s 753 mmHg 55%
    17:00 +25°C° 0 mm 3 m/s 753 mmHg 59%
    18:00 +23°C° 0 mm 2 m/s 753 mmHg 64%
    19:00 +21°C° 0 mm 2 m/s 753 mmHg 68%
    20:00 +20°C° 0 mm 2 m/s 753 mmHg 70%
    21:00 +19°C° 0 mm 2 m/s 754 mmHg 71%
    22:00 +19°C° 0 mm 1 m/s 754 mmHg 72%
    23:00 +18°C° 0 mm 1 m/s 754 mmHg 73%

    Amanhã, 19 Agosto, Domingo

    Tempo Temperatura Precipitação Vento Pressão Humidade
    00:00 +18°C° 0 mm 1 m/s 754 mmHg 73%
    01:00 +16°C° 0 mm 1 m/s 754 mmHg 73%
    02:00 +16°C° 0 mm 1 m/s 754 mmHg 74%
    03:00 +16°C° 0 mm 2 m/s 754 mmHg 76%
    04:00 +16°C° 0 mm 2 m/s 754 mmHg 78%
    05:00 +17°C° 0 mm 2 m/s 754 mmHg 75%
    06:00 +18°C° 0 mm 2 m/s 754 mmHg 73%
    07:00 +19°C° 0 mm 3 m/s 754 mmHg 70%
    08:00 +21°C° 0 mm 3 m/s 754 mmHg 63%
    09:00 +24°C° 0 mm 3 m/s 754 mmHg 55%
    10:00 +25°C° 0 mm 4 m/s 754 mmHg 47%
    11:00 +26°C° 0 mm 4 m/s 754 mmHg 46%
    12:00 +27°C° 0 mm 4 m/s 754 mmHg 45%
    13:00 +27°C° 0 mm 4 m/s 754 mmHg 44%
    14:00 +27°C° 0 mm 3 m/s 753 mmHg 46%
    15:00 +27°C° 0 mm 3 m/s 753 mmHg 47%
    16:00 +27°C° 0 mm 3 m/s 753 mmHg 49%
    17:00 +25°C° 0 mm 3 m/s 753 mmHg 56%
    18:00 +24°C° 0 mm 2 m/s 753 mmHg 62%
    19:00 +21°C° 0 mm 2 m/s 753 mmHg 69%
    20:00 +21°C° 0 mm 1 m/s 753 mmHg 73%
    21:00 +21°C° 0 mm 1 m/s 753 mmHg 76%
    22:00 +20°C° 0 mm 1 m/s 753 mmHg 80%
    23:00 +20°C° 0 mm 1 m/s 753 mmHg 81%

    Depois de amanhã, 20 Agosto, Segunda-feira

    Tempo Temperatura Precipitação Vento Pressão Humidade
    00:00 +19°C° 0 mm 1 m/s 752 mmHg 82%
    01:00 +19°C° 0 mm 1 m/s 752 mmHg 83%
    02:00 +19°C° 0 mm 1 m/s 752 mmHg 83%
    03:00 +19°C° 0 mm 1 m/s 752 mmHg 84%
    04:00 +19°C° 0 mm 1 m/s 752 mmHg 84%
    05:00 +20°C° 0 mm 1 m/s 752 mmHg 80%
    06:00 +21°C° 0 mm 1 m/s 752 mmHg 76%
    07:00 +22°C° 0 mm 1 m/s 752 mmHg 72%
    08:00 +23°C° 0 mm 2 m/s 752 mmHg 66%
    09:00 +25°C° 0 mm 2 m/s 751 mmHg 59%
    10:00 +27°C° 0 mm 3 m/s 751 mmHg 52%
    11:00 +27°C° 0 mm 3 m/s 751 mmHg 49%
    12:00 +28°C° 0 mm 3 m/s 751 mmHg 46%
    13:00 +29°C° 0 mm 4 m/s 751 mmHg 44%
    14:00 +29°C° 0,1 mm 3 m/s 750 mmHg 46%
    15:00 +28°C° 0,1 mm 3 m/s 750 mmHg 49%
    16:00 +28°C° 0,1 mm 3 m/s 750 mmHg 51%
    17:00 +26°C° 0,1 mm 3 m/s 749 mmHg 58%
    18:00 +25°C° 0,1 mm 2 m/s 749 mmHg 64%
    19:00 +23°C° 0,1 mm 2 m/s 749 mmHg 70%
    20:00 +22°C° 0 mm 1 m/s 749 mmHg 73%
    21:00 +22°C° 0 mm 1 m/s 749 mmHg 75%
    22:00 +21°C° 0 mm 1 m/s 749 mmHg 78%
    23:00 +21°C° 0 mm 1 m/s 749 mmHg 79%

    21 Agosto, Terça-feira

    Tempo Temperatura Precipitação Vento Pressão Humidade
    00:00 +21°C° 0 mm 1 m/s 749 mmHg 81%
    01:00 +19°C° 0 mm 2 m/s 749 mmHg 83%
    02:00 +19°C° 0 mm 2 m/s 749 mmHg 85%
    03:00 +18°C° 0 mm 2 m/s 749 mmHg 88%
    04:00 +18°C° 0 mm 3 m/s 749 mmHg 90%
    05:00 +18°C° 0 mm 3 m/s 749 mmHg 87%
    06:00 +19°C° 0 mm 4 m/s 749 mmHg 84%
    07:00 +20°C° 0 mm 4 m/s 749 mmHg 81%
    08:00 +21°C° 0 mm 4 m/s 750 mmHg 74%
    09:00 +21°C° 0 mm 5 m/s 750 mmHg 66%
    10:00 +22°C° 0 mm 5 m/s 750 mmHg 59%
    11:00 +23°C° 0 mm 5 m/s 750 mmHg 54%
    12:00 +25°C° 0 mm 5 m/s 750 mmHg 49%
    13:00 +25°C° 0 mm 5 m/s 750 mmHg 44%
    14:00 +25°C° 0 mm 5 m/s 750 mmHg 47%
    15:00 +25°C° 0 mm 5 m/s 750 mmHg 50%
    16:00 +25°C° 0 mm 5 m/s 751 mmHg 52%
    17:00 +23°C° 0 mm 4 m/s 751 mmHg 59%
    18:00 +21°C° 0 mm 3 m/s 750 mmHg 65%
    19:00 +20°C° 0 mm 2 m/s 750 mmHg 71%
    20:00 +20°C° 0 mm 2 m/s 750 mmHg 74%
    21:00 +19°C° 0 mm 2 m/s 751 mmHg 76%
    22:00 +19°C° 0 mm 2 m/s 751 mmHg 78%
    23:00 +18°C° 0 mm 2 m/s 751 mmHg 80%

    22 Agosto, Quarta-feira

    Tempo Temperatura Precipitação Vento Pressão Humidade
    00:00 +18°C° 0 mm 2 m/s 750 mmHg 81%
    01:00 +18°C° 0 mm 2 m/s 750 mmHg 82%
    02:00 +18°C° 0 mm 2 m/s 750 mmHg 83%
    03:00 +18°C° 0 mm 2 m/s 750 mmHg 83%
    04:00 +18°C° 0 mm 2 m/s 750 mmHg 83%
    05:00 +18°C° 0,1 mm 3 m/s 750 mmHg 81%
    06:00 +19°C° 0,1 mm 3 m/s 750 mmHg 79%
    07:00 +20°C° 0,1 mm 3 m/s 750 mmHg 76%
    08:00 +21°C° 0,1 mm 4 m/s 750 mmHg 69%
    09:00 +23°C° 0,1 mm 5 m/s 750 mmHg 63%
    10:00 +25°C° 0,1 mm 5 m/s 750 mmHg 56%
    11:00 +25°C° 0,1 mm 5 m/s 750 mmHg 55%
    12:00 +24°C° 0,1 mm 6 m/s 750 mmHg 54%
    13:00 +24°C° 0,1 mm 6 m/s 750 mmHg 53%
    14:00 +25°C° 0 mm 5 m/s 750 mmHg 53%
    15:00 +25°C° 0 mm 5 m/s 750 mmHg 53%
    16:00 +25°C° 0 mm 5 m/s 750 mmHg 53%
    17:00 +23°C° 0 mm 4 m/s 750 mmHg 58%
    18:00 +21°C° 0 mm 4 m/s 750 mmHg 63%
    19:00 +20°C° 0 mm 3 m/s 751 mmHg 69%
    20:00 +19°C° 0 mm 3 m/s 751 mmHg 73%
    21:00 +18°C° 0 mm 3 m/s 751 mmHg 77%
    22:00 +17°C° 0 mm 3 m/s 751 mmHg 81%
    23:00 +17°C° 0 mm 2 m/s 751 mmHg 84%

    23 Agosto, Quinta-feira

    Tempo Temperatura Precipitação Vento Pressão Humidade
    00:00 +16°C° 0 mm 2 m/s 752 mmHg 87%
    01:00 +15°C° 0 mm 2 m/s 752 mmHg 90%
    02:00 +15°C° 0 mm 2 m/s 752 mmHg 90%
    03:00 +14°C° 0 mm 2 m/s 752 mmHg 91%
    04:00 +14°C° 0 mm 2 m/s 752 mmHg 92%
    05:00 +15°C° 0 mm 2 m/s 752 mmHg 85%
    06:00 +16°C° 0 mm 2 m/s 752 mmHg 79%
    07:00 +17°C° 0 mm 2 m/s 753 mmHg 73%
    08:00 +18°C° 0 mm 2 m/s 753 mmHg 66%
    09:00 +20°C° 0 mm 2 m/s 753 mmHg 58%
    10:00 +21°C° 0 mm 2 m/s 753 mmHg 51%
    11:00 +21°C° 0 mm 2 m/s 753 mmHg 49%
    12:00 +23°C° 0 mm 2 m/s 753 mmHg 46%
    13:00 +24°C° 0 mm 2 m/s 753 mmHg 43%
    14:00 +24°C° 0 mm 2 m/s 753 mmHg 44%
    15:00 +23°C° 0 mm 2 m/s 752 mmHg 45%
    16:00 +23°C° 0 mm 2 m/s 752 mmHg 46%
    17:00 +21°C° 0 mm 2 m/s 752 mmHg 53%
    18:00 +19°C° 0 mm 2 m/s 752 mmHg 60%
    19:00 +18°C° 0 mm 2 m/s 752 mmHg 67%
    20:00 +17°C° 0 mm 2 m/s 752 mmHg 72%
    21:00 +16°C° 0 mm 2 m/s 752 mmHg 77%
    22:00 +15°C° 0 mm 2 m/s 752 mmHg 81%
    23:00 +15°C° 0 mm 2 m/s 752 mmHg 83%
    Mostrar mais